TimeMST,TemperatureF,Dew PointF,Humidity,Sea Level PressureIn,VisibilityMPH,Wind Direction,Wind SpeedMPH,Gust SpeedMPH,PrecipitationIn,Events,Conditions,WindDirDegrees,DateUTC
12:54 AM,41.0,25.0,53,29.74,10.0,Calm,Calm,-,N/A,,Clear,0,2012-11-30 07:54:00
1:54 AM,44.1,26.1,49,29.74,10.0,WSW,12.7,-,N/A,,Clear,240,2012-11-30 08:54:00
2:54 AM,48.0,26.1,42,29.73,10.0,SW,12.7,-,N/A,,Partly Cloudy,220,2012-11-30 09:54:00
3:54 AM,50.0,26.1,39,29.70,10.0,SW,23.0,-,N/A,,Clear,220,2012-11-30 10:54:00
4:54 AM,46.9,26.1,44,29.71,10.0,SSW,13.8,-,N/A,,Clear,210,2012-11-30 11:54:00
5:54 AM,45.0,27.0,49,29.72,10.0,SSW,10.4,-,N/A,,Clear,210,2012-11-30 12:54:00
6:54 AM,45.0,28.0,52,29.69,10.0,SSW,6.9,-,N/A,,Clear,210,2012-11-30 13:54:00
7:54 AM,48.0,28.0,46,29.68,10.0,SW,9.2,-,N/A,,Clear,220,2012-11-30 14:54:00
8:54 AM,52.0,27.0,38,29.65,10.0,SSW,4.6,16.1,N/A,,Mostly Cloudy,200,2012-11-30 15:54:00
9:54 AM,51.1,28.0,41,29.64,10.0,SSW,8.1,-,N/A,,Mostly Cloudy,210,2012-11-30 16:54:00
10:54 AM,50.0,30.0,46,29.62,10.0,SSW,8.1,-,N/A,,Mostly Cloudy,200,2012-11-30 17:54:00
11:54 AM,54.0,28.9,38,29.56,10.0,SSW,13.8,-,N/A,,Mostly Cloudy,210,2012-11-30 18:54:00
12:54 PM,53.1,28.9,40,29.57,10.0,SW,18.4,26.5,N/A,,Overcast,220,2012-11-30 19:54:00
1:54 PM,48.9,37.0,64,29.58,10.0,WSW,19.6,28.8,0.00,Rain,Light Rain,240,2012-11-30 20:54:00
2:54 PM,48.0,37.9,68,29.56,10.0,SW,16.1,23.0,0.00,Rain,Light Rain,230,2012-11-30 21:54:00
3:54 PM,46.9,39.0,74,29.58,10.0,WSW,13.8,-,0.00,Rain,Light Rain,240,2012-11-30 22:54:00
4:54 PM,45.0,39.0,80,29.60,10.0,SW,10.4,-,0.00,Rain,Light Rain,220,2012-11-30 23:54:00
5:54 PM,43.0,37.0,80,29.61,10.0,WSW,10.4,-,0.00,,Mostly Cloudy,250,2012-12-01 00:54:00
6:54 PM,44.1,36.0,73,29.62,10.0,WSW,13.8,-,N/A,,Scattered Clouds,250,2012-12-01 01:54:00
7:54 PM,44.1,35.1,71,29.63,10.0,SW,13.8,-,N/A,,Partly Cloudy,230,2012-12-01 02:54:00
9:54 PM,39.9,33.1,77,29.66,10.0,NNE,10.4,-,N/A,,Clear,30,2012-12-01 04:54:00
10:23 PM,42.8,33.8,70,29.65,10.0,WSW,10.4,-,N/A,,Clear,250,2012-12-01 05:23:00
10:54 PM,39.9,33.1,77,29.65,10.0,WSW,9.2,-,N/A,,Clear,240,2012-12-01 05:54:00
11:54 PM,39.0,32.0,76,29.65,10.0,WNW,3.5,-,N/A,,Clear,290,2012-12-01 06:54:00